Weather in Jelgava

Latvia     56°39′08″N   23°43′28″E
В апреле 2022 года жителям России запретили посещать сайт meteo.paraplan.net по решению Генеральной прокуратуры. Аудитория сайта уменьшилась в 10 раз. Владельцы сайта не видят смысла в поддержке погодного сервера в таких условиях. Сайт будет закрыт в октябре.
temp.,
°C
wind,
m/s
gust,
m/s
humid.,
%
clouds,
%
prec.,
mm/h
press.,
hPa
HPBL,
m
25 september, sun
sun2500:00+6wnw11875 0.0 101510
03:00+6wnw22915 0.0 101520
06:00+5wnw23945 0.0 101440
09:00+8wnw24775 0.0 1014126
12:00+14nw235634 0.0 10131253
15:00+15nnw234993 0.0 10111505
18:00+13ne236192 0.0 101091
21:00+10e117094 0.0 101020
26 september, mon
mon2600:00+10se117099 0.0 100915
03:00+9s118137 0.1 100811
06:00+7ssw119552 0.0 100712
09:00+9sse24865 0.0 1007146
12:00+15s355382 0.0 1007915
15:00+17s464450 0.0 10061575
18:00+15sse375015 0.0 1006367
21:00+12se3958100 0.0 1006247
27 september, tue
tue2700:00+12se3960100 0.0 1007300
03:00+11ese2465100 0.0 1006124
06:00+11ese2871100 0.0 1006274
09:00+10se397674 0.0 1006310
12:00+15ese465625 0.0 1006933
15:00+17ese45484 0.0 10051512
18:00+16ese365411 0.0 1005400
21:00+10e28895 0.0 1005183
28 september, wed
wed2800:00+10e269131 0.0 1005158
03:00+11e3985100 0.1 1004353
06:00+11e3982100 0.0 1003365
09:00+11e3981100 0.0 1003403
12:00+13ese4767100 0.3 1002886
15:00+16se5747100 0.3 10011777
18:00+14se3754100 0.0 10011011
21:00+10ese51187100 0.8 1002704
29 september, thu
thu2900:00+10ese4993100 2.3 1002657
03:00+8s38965 2.4 1003273
06:00+7ese3996100 0.0 1004234
09:00+8se41185100 0.0 1004467
12:00+9se41191100 1.4 1005601
15:00+10sse4990100 1.5 1006609
18:00+10sse3993100 0.1 1006552
21:00+10sse3895100 0.1 1007503